Location: Newark
(35.2672°N, 80.7344°W)
Time: 18:29:29
(UTC+00:00)

Tiros 1 - Pass Details

Date: 26 January 2020
Orbit: 631 x 664 km, 48.4° (Epoch: 26 February)

Event Time Altitude Azimuth Distance (km) Brightness Sun altitude
Rises 16:10:51 0° 211° (SSW) 2,908 10.9 32.4°
Reaches altitude 10° 16:13:16 10° 203° (SSW) 2,007 10.4 32.6°
Maximum altitude 16:17:33 38° 135° (SE) 967 9.8 32.9°
Drops below altitude 10° 16:21:54 10° 68° (ENE) 2,034 9.8 33.3°
Sets 16:24:21 0° 60° (ENE) 2,953 10.5 33.4°
